Wind_Speed
35 34 36 37 37 38 38 39 42 43 43 44 43 41 40 42 42 38 34 35 32 31 30 28 30 30 29 30 34 37 39 30 23 24 24 32 36 36 36 37 36 34 33 30 28
36 36 36 37 37 37 36 35 38 40 40 41 42 39 38 39 39 34 36 35 30 28 27 26 29 32 33 30 33 34 33 23 21 23 24 30 37 40 38 37 38 35 34 35 32
37 37 37 37 36 34 34 32 32 34 36 37 38 36 34 34 33 31 33 33 29 26 26 25 27 29 33 34 34 35 33 28 27 29 30 33 37 39 38 36 36 40 39 37 36
38 38 37 38 36 34 34 31 30 30 33 34 35 34 33 33 31 28 33 32 27 26 26 25 24 26 27 33 39 41 38 35 32 35 34 35 37 39 36 32 38 38 43 39 37
38 38 38 37 37 36 35 32 30 28 27 29 32 32 31 30 30 29 30 29 27 26 27 25 25 27 29 30 33 40 43 45 42 38 39 37 35 35 34 33 35 38 37 40 39
35 38 39 37 38 38 36 35 32 30 27 26 28 29 29 29 28 25 26 26 25 26 24 24 27 28 28 30 32 35 39 40 45 48 42 42 38 41 31 34 35 35 37 38 41
36 36 42 37 38 40 39 37 34 33 29 27 26 26 26 26 26 25 25 25 24 26 26 26 28 30 29 30 32 33 36 39 37 40 50 47 44 41 35 37 38 34 33 36 38
40 38 40 42 38 40 41 39 37 35 32 28 27 25 25 24 23 23 23 23 23 24 25 26 28 29 31 32 33 34 36 36 36 35 45 51 47 41 40 41 40 40 33 33 36
39 43 42 44 44 40 41 42 41 38 35 32 29 27 26 25 23 23 22 22 22 23 25 26 27 29 33 35 35 35 36 38 39 39 42 52 55 47 46 43 42 40 37 33 32
47 44 48 45 47 46 42 42 43 40 38 34 32 30 28 27 26 25 24 24 24 23 24 27 30 31 33 35 36 37 40 40 42 43 46 48 55 50 47 45 44 43 40 35 33
49 51 50 51 48 50 48 42 41 42 40 39 35 33 31 30 28 27 26 25 26 28 27 29 32 32 33 36 39 42 44 44 42 46 50 50 51 49 50 50 47 44 41 39 37
54 54 60 52 52 51 50 48 42 41 41 40 38 36 34 33 31 30 29 30 31 31 32 33 34 36 39 41 43 44 46 48 47 45 48 53 55 53 52 50 48 47 45 41 39
59 58 62 54 46 57 49 49 47 44 42 39 38 37 37 36 34 33 33 34 34 37 38 41 40 41 42 44 46 46 48 50 51 50 51 52 54 57 53 53 50 49 48 45 41
58 62 64 51 44 56 55 48 47 47 45 40 39 37 35 35 35 36 36 38 40 41 43 43 41 44 46 49 51 51 52 53 55 56 53 51 57 54 56 54 52 51 52 51 47
50 62 66 48 45 52 53 51 48 42 45 44 41 37 37 36 35 36 38 39 40 41 42 42 44 47 50 50 54 53 53 54 56 58 58 53 59 54 50 51 49 48 50 51 49
47 58 67 65 50 46 45 51 51 47 45 39 39 38 37 37 37 37 36 38 38 40 43 44 48 50 52 52 55 55 55 57 58 59 64 60 62 55 49 43 45 48 49 49 48
43 53 60 57 51 44 47 50 50 51 45 36 32 33 33 33 34 34 35 35 36 40 44 48 50 54 55 54 55 54 53 54 58 62 66 64 64 58 49 42 44 44 52 50 50
37 50 58 61 47 47 46 47 51 49 44 38 35 31 31 32 32 29 29 31 37 43 44 45 45 46 46 45 45 50 46 47 50 57 61 58 66 58 52 48 44 38 44 47 49
34 50 62 48 51 43 40 42 46 47 42 37 35 33 31 32 29 27 28 31 29 25 25 24 19 21 18 24 29 36 45 41 41 44 48 54 62 61 58 47 46 41 41 45 47
37 52 58 49 41 44 35 34 34 42 40 37 35 34 33 32 26 27 26 21 17 19 24 23 25 22 26 28 29 31 29 34 44 43 44 43 42 43 47 40 43 39 43 45 42
50 55 52 50 47 43 29 30 31 37 39 38 36 34 32 25 25 25 21 15 17 21 25 31 33 30 31 31 32 35 34 35 35 42 46 41 36 26 31 32 36 38 44 42 43
59 49 45 38 37 43 24 22 27 37 38 36 35 34 26 26 24 21 19 19 18 22 27 31 36 32 33 30 30 33 35 34 38 41 44 46 37 29 27 25 29 36 42 39 34
50 39 38 29 38 31 30 28 28 34 36 35 34 30 25 23 19 18 21 17 19 23 27 26 31 37 35 33 33 33 34 32 35 34 35 34 21 24 20 22 25 33 37 32 32
38 25 42 43 36 24 20 22 30 29 32 33 29 25 24 18 16 18 17 17 19 20 26 30 29 30 35 36 35 31 27 23 24 34 25 22 15 21 23 23 28 31 34 37 33
24 16 28 34 33 21 22 23 26 26 28 28 25 22 18 13 14 11 15 18 18 18 19 22 21 22 16 16 26 21 12 13 7 3 16 12 22 20 31 27 29 31 35 39 37
23 27 35 36 32 24 21 24 27 22 21 23 19 20 16 11 12 11 13 13 15 13 12 16 13 16 16 20 23 23 20 15 7 11 11 18 26 26 21 27 30 30 36 38 37
13 21 26 31 26 19 20 18 17 20 20 18 19 19 14 10 9 13 9 9 5 12 9 9 9 15 15 15 12 11 9 11 21 14 15 16 12 16 15 24 35 33 41 36 33
Wind_Direction
266 267 265 263 263 257 253 254 252 249 248 244 238 235 236 242 249 244 243 243 246 249 253 255 256 255 255 255 255 253 254 255 248 238 235 245 250 251 246 244 245 244 244 242 243
263 261 262 259 257 255 250 247 245 244 243 243 239 233 234 238 240 240 238 242 245 251 255 259 258 258 258 257 258 256 254 247 237 229 228 236 246 249 245 240 241 244 244 243 240
259 260 260 255 251 247 245 244 242 240 239 238 235 231 229 231 233 237 242 241 244 248 252 258 261 259 257 257 257 256 256 247 240 234 237 238 245 250 251 248 244 242 243 241 242
257 255 257 253 247 242 239 239 239 238 235 233 233 232 231 227 229 231 239 242 246 250 253 256 261 261 257 255 255 257 254 251 248 241 240 242 246 251 253 249 247 247 245 245 244
257 250 255 251 245 241 238 236 234 234 232 230 230 232 232 229 229 230 239 246 247 247 254 259 263 264 260 257 256 258 256 254 251 248 247 245 247 255 255 257 253 251 249 245 245
266 254 250 250 244 240 238 236 233 231 228 227 228 228 229 230 231 232 235 241 248 252 255 261 265 267 268 262 261 261 259 258 255 249 250 250 249 254 260 264 261 254 250 246 245
261 258 247 249 245 241 239 238 235 232 228 226 226 226 228 229 232 234 237 243 249 255 255 257 261 266 273 271 271 266 263 260 262 253 246 249 247 252 254 255 258 257 252 249 245
252 254 251 245 246 242 239 238 237 234 230 228 230 230 231 230 235 237 240 241 245 252 258 264 267 270 273 273 274 271 271 264 260 254 244 246 243 247 253 251 250 255 250 247 245
250 244 250 247 241 245 240 239 239 236 234 230 232 235 237 237 237 240 241 245 249 253 261 269 271 271 273 274 275 278 276 265 259 255 249 242 244 242 247 250 249 252 251 248 248
252 241 239 246 242 238 241 237 239 238 237 236 234 235 238 242 243 246 251 254 258 259 263 267 270 273 275 278 278 273 273 271 261 251 251 248 246 244 245 248 248 249 249 251 251
249 237 236 236 242 238 237 238 237 239 239 238 236 238 239 242 247 250 255 259 263 266 268 271 275 276 278 277 276 275 274 272 268 261 252 252 251 248 245 248 247 247 248 249 248
242 231 230 228 235 240 235 235 237 238 238 238 238 238 240 245 249 254 259 262 265 269 272 273 276 277 275 275 274 271 271 273 270 265 262 251 249 248 244 243 245 247 248 245 245
231 224 223 225 236 235 235 233 232 235 238 238 238 241 241 245 251 254 258 264 268 271 273 274 276 274 276 277 275 272 271 269 269 265 262 259 252 247 246 244 243 245 248 247 243
225 218 217 214 222 232 229 230 230 232 236 237 240 240 245 247 250 256 263 267 270 272 274 275 279 278 276 275 276 273 271 268 266 264 261 258 261 246 245 246 246 245 247 247 245
220 216 205 186 203 229 230 229 229 230 234 235 237 242 248 252 256 258 263 267 269 271 275 278 277 277 277 277 275 275 272 269 267 265 263 260 258 257 245 246 248 249 247 247 247
223 212 208 202 207 220 229 228 225 227 232 235 238 241 245 250 256 260 263 266 271 275 277 278 278 278 278 276 276 273 269 267 264 262 260 258 258 251 255 248 245 248 246 244 244
221 207 205 186 205 208 222 226 223 225 227 231 235 239 243 249 255 260 266 272 275 277 280 282 283 282 279 277 273 271 268 265 263 260 262 259 256 254 253 251 246 241 246 244 244
211 201 194 184 193 204 223 229 225 221 223 227 232 240 245 250 258 267 275 278 282 289 290 291 287 281 276 270 263 260 257 258 261 262 261 259 254 250 250 250 241 236 238 240 239
195 193 177 192 188 207 214 226 221 218 220 223 229 238 244 250 263 271 272 283 291 294 297 300 298 285 289 283 281 274 263 256 258 260 263 260 254 252 251 247 245 234 233 235 235
184 176 177 187 188 201 212 227 224 217 216 221 226 234 244 254 262 262 275 277 278 296 302 301 299 307 300 298 297 290 279 263 254 258 262 263 268 269 259 251 240 230 222 227 228
175 165 169 183 195 200 213 218 216 209 213 218 225 231 240 252 255 267 270 263 272 290 312 311 299 295 295 295 287 282 278 266 260 251 259 263 262 255 243 231 221 213 213 219 218
168 161 163 168 190 193 195 209 204 203 207 217 222 230 239 243 255 267 248 262 281 293 304 310 302 296 289 283 280 282 280 267 260 255 257 264 250 240 242 224 209 205 207 212 211
173 163 176 184 179 193 206 211 207 201 207 214 220 228 232 245 258 246 240 272 293 295 301 304 298 299 304 302 301 292 297 291 261 253 258 265 256 222 217 213 194 200 202 201 200
160 150 188 186 181 198 211 207 202 199 206 211 218 224 236 247 256 236 244 270 296 297 308 305 305 314 315 318 311 313 306 285 285 262 263 236 207 183 201 200 189 194 188 186 193
153 164 175 172 185 184 188 186 190 199 207 214 217 229 237 244 254 253 249 266 292 304 312 309 326 337 359 357 359 345 332 270 259 221 185 186 185 191 178 187 183 179 190 186 187
137 157 182 193 175 183 173 185 188 196 204 211 220 228 230 254 260 250 255 270 288 312 333 331 352 22 24 16 3 25 36 46 82 163 163 189 185 196 181 153 197 161 176 182 190
141 152 176 182 190 183 181 181 193 205 215 215 220 233 242 257 249 254 269 262 275 337 338 345 18 27 21 8 11 26 57 115 138 142 156 140 129 134 164 130 161 157 173 178 174
Height
5696 5697 5698 5698 5700 5702 5704 5706 5709 5712 5715 5719 5722 5724 5729 5733 5737 5740 5743 5744 5747 5748 5750 5752 5752 5753 5754 5757 5758 5760 5760 5768 5773 5777 5781 5778 5778 5779 5782 5786 5788 5791 5794 5797 5799
5688 5690 5690 5691 5692 5695 5696 5698 5701 5704 5707 5710 5714 5717 5721 5725 5729 5733 5734 5738 5741 5742 5743 5744 5745 5747 5748 5750 5750 5753 5756 5764 5768 5770 5772 5770 5769 5771 5775 5778 5781 5784 5787 5789 5791
5680 5682 5683 5684 5685 5687 5690 5691 5694 5696 5699 5702 5706 5710 5713 5717 5723 5725 5728 5731 5733 5735 5737 5737 5739 5741 5742 5743 5746 5747 5752 5756 5761 5763 5764 5764 5763 5763 5767 5773 5776 5776 5778 5782 5785
5670 5673 5675 5676 5677 5679 5683 5685 5688 5690 5692 5695 5699 5703 5707 5711 5716 5718 5721 5723 5727 5728 5730 5732 5733 5735 5736 5738 5740 5739 5745 5750 5755 5755 5757 5758 5758 5758 5761 5767 5768 5771 5773 5777 5780
5661 5663 5666 5668 5669 5672 5675 5678 5681 5684 5686 5688 5692 5697 5701 5704 5706 5711 5714 5717 5719 5721 5724 5726 5727 5728 5730 5732 5733 5732 5739 5741 5746 5749 5751 5751 5753 5754 5756 5760 5763 5765 5766 5770 5773
5652 5653 5657 5658 5661 5664 5667 5671 5674 5677 5679 5682 5686 5690 5694 5698 5700 5703 5707 5709 5711 5714 5716 5719 5721 5722 5724 5725 5726 5727 5729 5732 5735 5740 5743 5744 5748 5745 5755 5753 5754 5757 5759 5762 5765
5643 5643 5646 5650 5652 5656 5659 5663 5666 5670 5673 5676 5680 5684 5687 5692 5693 5695 5699 5702 5705 5708 5710 5713 5714 5716 5718 5718 5719 5720 5721 5722 5726 5729 5732 5734 5738 5741 5746 5745 5745 5748 5752 5755 5758
5632 5634 5635 5639 5643 5646 5650 5654 5658 5663 5666 5669 5674 5677 5680 5684 5686 5689 5692 5696 5698 5701 5703 5706 5708 5709 5710 5711 5711 5712 5713 5715 5717 5718 5721 5722 5730 5734 5735 5737 5739 5739 5744 5747 5751
5620 5623 5625 5627 5632 5637 5640 5644 5650 5655 5659 5663 5667 5671 5673 5677 5681 5683 5686 5689 5692 5694 5696 5699 5701 5702 5703 5703 5703 5704 5705 5705 5707 5709 5710 5712 5714 5723 5725 5728 5731 5734 5736 5739 5742
5605 5609 5613 5616 5620 5626 5629 5634 5641 5647 5652 5656 5660 5664 5668 5671 5674 5677 5679 5682 5685 5687 5689 5692 5693 5695 5695 5695 5696 5695 5694 5695 5696 5701 5699 5702 5703 5712 5716 5718 5723 5726 5729 5732 5735
5586 5593 5597 5603 5607 5612 5619 5626 5634 5639 5644 5648 5654 5657 5660 5664 5667 5670 5672 5675 5678 5680 5681 5683 5686 5688 5687 5685 5685 5685 5685 5686 5686 5688 5692 5693 5694 5701 5705 5708 5714 5718 5722 5724 5728
5562 5573 5581 5589 5595 5599 5607 5616 5624 5631 5635 5639 5645 5650 5654 5656 5660 5663 5666 5668 5670 5671 5673 5676 5679 5679 5677 5676 5675 5676 5674 5675 5677 5677 5677 5682 5682 5686 5691 5699 5705 5709 5713 5716 5719
5536 5550 5563 5576 5583 5586 5598 5604 5612 5619 5626 5632 5637 5642 5646 5650 5653 5656 5658 5660 5662 5663 5664 5666 5670 5668 5667 5666 5664 5664 5664 5663 5664 5663 5664 5664 5668 5674 5684 5685 5693 5699 5703 5707 5711
5512 5528 5545 5561 5571 5574 5584 5594 5601 5609 5616 5625 5629 5634 5639 5643 5647 5647 5650 5653 5654 5655 5655 5657 5659 5656 5655 5654 5651 5651 5650 5649 5649 5648 5651 5653 5649 5663 5670 5677 5683 5689 5693 5697 5701
5493 5508 5527 5539 5553 5562 5576 5582 5592 5601 5605 5615 5621 5627 5631 5636 5640 5642 5643 5643 5645 5645 5646 5649 5647 5644 5642 5642 5635 5638 5636 5634 5635 5634 5635 5643 5636 5645 5660 5668 5673 5678 5683 5686 5692
5476 5490 5507 5528 5544 5556 5565 5572 5582 5592 5596 5606 5613 5620 5624 5627 5631 5633 5636 5637 5638 5636 5636 5637 5634 5632 5631 5627 5622 5620 5621 5619 5618 5619 5619 5627 5624 5636 5646 5659 5664 5665 5669 5675 5680
5464 5478 5495 5518 5538 5549 5555 5565 5574 5580 5593 5601 5608 5613 5617 5620 5623 5626 5627 5629 5629 5627 5627 5625 5624 5619 5616 5612 5607 5606 5606 5605 5602 5601 5604 5610 5611 5626 5637 5643 5648 5652 5655 5662 5667
5456 5471 5491 5513 5529 5539 5547 5557 5564 5576 5587 5595 5602 5607 5611 5613 5616 5619 5620 5620 5619 5617 5615 5611 5609 5602 5601 5596 5593 5590 5592 5592 5587 5587 5589 5594 5593 5611 5623 5625 5631 5637 5641 5647 5654
5454 5467 5489 5507 5521 5532 5543 5548 5559 5571 5582 5590 5596 5601 5604 5607 5610 5613 5614 5615 5613 5610 5606 5600 5595 5590 5588 5584 5583 5582 5580 5587 5579 5578 5575 5578 5585 5594 5601 5611 5613 5623 5630 5634 5640
5454 5472 5491 5503 5517 5528 5538 5546 5556 5566 5577 5583 5589 5595 5599 5602 5607 5607 5608 5610 5607 5604 5599 5595 5590 5589 5585 5582 5581 5576 5575 5574 5573 5570 5566 5571 5575 5582 5588 5592 5599 5610 5618 5622 5630
5459 5476 5491 5507 5519 5527 5536 5545 5553 5562 5570 5577 5584 5590 5594 5599 5601 5602 5604 5604 5600 5596 5592 5588 5586 5586 5581 5579 5575 5569 5566 5565 5563 5561 5559 5563 5569 5574 5576 5581 5589 5598 5605 5612 5620
5466 5478 5489 5499 5512 5523 5535 5543 5549 5557 5566 5572 5578 5584 5589 5592 5596 5596 5597 5595 5595 5591 5587 5583 5579 5578 5575 5571 5566 5562 5557 5553 5551 5552 5554 5554 5558 5566 5569 5575 5581 5589 5598 5607 5616
5474 5486 5496 5505 5515 5524 5533 5540 5546 5554 5561 5569 5574 5580 5584 5588 5591 5591 5591 5591 5590 5587 5583 5581 5576 5571 5566 5563 5558 5552 5551 5545 5542 5543 5545 5545 5545 5559 5563 5569 5576 5584 5593 5604 5610
5484 5491 5498 5506 5515 5525 5534 5540 5546 5553 5559 5565 5571 5577 5581 5584 5585 5586 5586 5586 5585 5583 5579 5575 5571 5566 5558 5552 5547 5539 5539 5539 5537 5535 5544 5536 5546 5556 5558 5565 5572 5580 5588 5598 5607
5487 5493 5502 5509 5518 5527 5532 5536 5544 5551 5558 5564 5569 5573 5576 5579 5578 5579 5581 5583 5584 5580 5576 5572 5567 5561 5554 5548 5542 5536 5534 5533 5533 5535 5534 5542 5542 5552 5554 5561 5569 5579 5585 5594 5603
5492 5498 5503 5512 5521 5528 5533 5538 5544 5550 5557 5562 5566 5569 5572 5574 5573 5576 5579 5582 5581 5578 5573 5570 5566 5561 5555 5551 5547 5542 5538 5536 5536 5538 5541 5541 5543 5544 5552 5561 5568 5578 5586 5595 5603
5496 5503 5509 5516 5522 5528 5534 5539 5544 5550 5556 5560 5563 5566 5568 5569 5571 5573 5577 5579 5579 5576 5574 5571 5567 5563 5559 5555 5552 5550 5547 5545 5544 5545 5546 5546 5547 5549 5555 5555 5566 5572 5586 5594 5599